When you browse on this site, cookies collect data to enhance your experience and personalize the content and advertising you see.
Visit our Privacy Policy to learn more. By continuing to use the site, you agree to this use of cookies and data.
  • In Latvia
  • List of Countries
  • For 7 days
  • Water Temperature
  • Satellite Maps
  • Weather Map
  • Weather Widgets
  • user-avatar
    Login

    Hourly Weather Pionerskiy

    Today, 26 June, Wednesday

    Time Temperature Precipitation Wind Pressure Humidity
    00:00 +14°C° 0 mm 3 mps 760 mmHg 81%
    01:00 +15°C° 0 mm 2 mps 760 mmHg 82%
    02:00 +14°C° 0 mm 2 mps 760 mmHg 82%
    03:00 +15°C° 0 mm 2 mps 760 mmHg 81%
    04:00 +15°C° 0 mm 2 mps 760 mmHg 79%
    05:00 +16°C° 0 mm 3 mps 760 mmHg 78%
    06:00 +16°C° 0 mm 3 mps 760 mmHg 77%
    07:00 +17°C° 0 mm 3 mps 760 mmHg 72%
    08:00 +19°C° 0 mm 4 mps 759 mmHg 68%
    09:00 +20°C° 0 mm 4 mps 759 mmHg 64%
    10:00 +20°C° 0.1 mm 4 mps 759 mmHg 63%
    11:00 +21°C° 0.1 mm 5 mps 759 mmHg 61%
    12:00 +21°C° 0.1 mm 5 mps 759 mmHg 59%
    13:00 +21°C° 0.1 mm 4 mps 759 mmHg 57%
    14:00 +21°C° 0.1 mm 4 mps 759 mmHg 56%
    15:00 +21°C° 0.1 mm 4 mps 759 mmHg 54%
    16:00 +21°C° 0 mm 4 mps 758 mmHg 57%
    17:00 +20°C° 0 mm 3 mps 758 mmHg 60%
    18:00 +19°C° 0 mm 3 mps 758 mmHg 63%
    19:00 +18°C° 0 mm 3 mps 758 mmHg 66%
    20:00 +16°C° 0 mm 2 mps 758 mmHg 70%
    21:00 +14°C° 0 mm 2 mps 758 mmHg 74%
    22:00 +14°C° 0 mm 1 mps 757 mmHg 76%
    23:00 +13°C° 0 mm 1 mps 757 mmHg 78%

    Tomorrow, 27 June, Thursday

    Time Temperature Precipitation Wind Pressure Humidity
    00:00 +12°C° 0 mm 0 mps 756 mmHg 80%
    01:00 +12°C° 0 mm 0 mps 756 mmHg 78%
    02:00 +13°C° 0 mm 1 mps 756 mmHg 76%
    03:00 +13°C° 0 mm 1 mps 755 mmHg 74%
    04:00 +14°C° 0 mm 2 mps 755 mmHg 75%
    05:00 +14°C° 0 mm 2 mps 754 mmHg 76%
    06:00 +13°C° 0 mm 3 mps 753 mmHg 76%
    07:00 +13°C° 0.7 mm 4 mps 753 mmHg 82%
    08:00 +13°C° 0.7 mm 4 mps 752 mmHg 88%
    09:00 +12°C° 0.7 mm 5 mps 752 mmHg 93%
    10:00 +14°C° 0.1 mm 5 mps 751 mmHg 90%
    11:00 +15°C° 0.1 mm 5 mps 751 mmHg 87%
    12:00 +16°C° 0.1 mm 5 mps 750 mmHg 85%
    13:00 +17°C° 0.2 mm 6 mps 750 mmHg 78%
    14:00 +19°C° 0.2 mm 6 mps 750 mmHg 72%
    15:00 +20°C° 0.2 mm 7 mps 750 mmHg 66%
    16:00 +17°C° 0 mm 6 mps 750 mmHg 70%
    17:00 +16°C° 0 mm 6 mps 749 mmHg 73%
    18:00 +14°C° 0 mm 5 mps 749 mmHg 77%
    19:00 +13°C° 0 mm 4 mps 749 mmHg 81%
    20:00 +12°C° 0 mm 3 mps 749 mmHg 85%
    21:00 +10°C° 0 mm 2 mps 749 mmHg 90%
    22:00 +10°C° 0 mm 2 mps 749 mmHg 91%
    23:00 +9°C° 0 mm 2 mps 749 mmHg 92%

    Day after tomorrow, 28 June, Friday

    Time Temperature Precipitation Wind Pressure Humidity
    00:00 +9°C° 0 mm 2 mps 748 mmHg 94%
    01:00 +10°C° 0 mm 1 mps 748 mmHg 94%
    02:00 +10°C° 0 mm 1 mps 748 mmHg 94%
    03:00 +10°C° 0 mm 1 mps 747 mmHg 94%
    04:00 +10°C° 0.1 mm 1 mps 747 mmHg 93%
    05:00 +10°C° 0.1 mm 2 mps 747 mmHg 91%
    06:00 +12°C° 0.1 mm 2 mps 746 mmHg 89%
    07:00 +12°C° 0.4 mm 2 mps 746 mmHg 91%
    08:00 +11°C° 0.4 mm 3 mps 746 mmHg 92%
    09:00 +11°C° 0.4 mm 4 mps 745 mmHg 94%
    10:00 +12°C° 0 mm 4 mps 745 mmHg 91%
    11:00 +13°C° 0 mm 5 mps 744 mmHg 88%
    12:00 +15°C° 0 mm 5 mps 744 mmHg 85%
    13:00 +17°C° 0.1 mm 5 mps 743 mmHg 80%
    14:00 +21°C° 0.1 mm 5 mps 743 mmHg 75%
    15:00 +25°C° 0.1 mm 5 mps 743 mmHg 70%
    16:00 +23°C° 0.6 mm 4 mps 742 mmHg 74%
    17:00 +22°C° 0.6 mm 3 mps 742 mmHg 78%
    18:00 +21°C° 0.6 mm 2 mps 742 mmHg 81%
    19:00 +20°C° 0.2 mm 2 mps 742 mmHg 83%
    20:00 +19°C° 0.2 mm 2 mps 742 mmHg 84%
    21:00 +18°C° 0.2 mm 2 mps 742 mmHg 85%
    22:00 +18°C° 0.2 mm 2 mps 742 mmHg 88%
    23:00 +17°C° 0.2 mm 2 mps 742 mmHg 90%

    29 June, Saturday

    Time Temperature Precipitation Wind Pressure Humidity
    00:00 +16°C° 0.2 mm 2 mps 742 mmHg 92%
    01:00 +16°C° 0.1 mm 2 mps 742 mmHg 93%
    02:00 +16°C° 0.1 mm 2 mps 742 mmHg 94%
    03:00 +16°C° 0.1 mm 2 mps 742 mmHg 95%
    04:00 +17°C° 0 mm 2 mps 742 mmHg 95%
    05:00 +18°C° 0 mm 3 mps 742 mmHg 94%
    06:00 +18°C° 0 mm 3 mps 742 mmHg 93%
    07:00 +19°C° 0 mm 4 mps 743 mmHg 86%
    08:00 +20°C° 0 mm 4 mps 743 mmHg 79%
    09:00 +22°C° 0 mm 5 mps 743 mmHg 73%
    10:00 +22°C° 0 mm 6 mps 744 mmHg 67%
    11:00 +23°C° 0 mm 6 mps 744 mmHg 62%
    12:00 +23°C° 0 mm 6 mps 744 mmHg 56%
    13:00 +23°C° 0 mm 6 mps 744 mmHg 56%
    14:00 +23°C° 0 mm 6 mps 745 mmHg 56%
    15:00 +24°C° 0 mm 6 mps 745 mmHg 56%
    16:00 +23°C° 0 mm 5 mps 745 mmHg 61%
    17:00 +22°C° 0 mm 4 mps 746 mmHg 65%
    18:00 +21°C° 0 mm 3 mps 746 mmHg 69%
    19:00 +20°C° 0 mm 3 mps 746 mmHg 72%
    20:00 +18°C° 0 mm 3 mps 747 mmHg 74%
    21:00 +16°C° 0 mm 2 mps 747 mmHg 77%
    22:00 +16°C° 0 mm 2 mps 747 mmHg 76%
    23:00 +16°C° 0 mm 2 mps 747 mmHg 76%

    30 June, Sunday

    Time Temperature Precipitation Wind Pressure Humidity
    00:00 +15°C° 0 mm 2 mps 747 mmHg 76%
    01:00 +15°C° 0 mm 2 mps 748 mmHg 78%
    02:00 +15°C° 0 mm 1 mps 748 mmHg 79%
    03:00 +14°C° 0 mm 1 mps 748 mmHg 81%
    04:00 +15°C° 0 mm 1 mps 748 mmHg 79%
    05:00 +16°C° 0 mm 1 mps 749 mmHg 77%
    06:00 +15°C° 0 mm 0 mps 749 mmHg 75%
    07:00 +16°C° 0 mm 0 mps 749 mmHg 71%
    08:00 +19°C° 0 mm 1 mps 749 mmHg 67%
    09:00 +20°C° 0 mm 1 mps 749 mmHg 63%
    10:00 +21°C° 0 mm 1 mps 749 mmHg 61%
    11:00 +22°C° 0 mm 1 mps 749 mmHg 59%
    12:00 +23°C° 0 mm 1 mps 749 mmHg 56%
    13:00 +24°C° 0.1 mm 1 mps 749 mmHg 54%
    14:00 +24°C° 0.1 mm 1 mps 749 mmHg 51%
    15:00 +24°C° 0.1 mm 1 mps 749 mmHg 48%
    16:00 +24°C° 0.2 mm 1 mps 750 mmHg 56%
    17:00 +23°C° 0.2 mm 2 mps 750 mmHg 64%
    18:00 +21°C° 0.2 mm 3 mps 750 mmHg 72%
    19:00 +19°C° 0.2 mm 3 mps 750 mmHg 79%
    20:00 +18°C° 0.2 mm 2 mps 751 mmHg 85%
    21:00 +16°C° 0.2 mm 2 mps 751 mmHg 91%
    22:00 +16°C° 0 mm 2 mps 751 mmHg 92%
    23:00 +15°C° 0 mm 1 mps 751 mmHg 92%

    1 July, Monday

    Time Temperature Precipitation Wind Pressure Humidity
    00:00 +15°C° 0 mm 1 mps 751 mmHg 93%
    01:00 +15°C° 0 mm 1 mps 751 mmHg 93%
    02:00 +15°C° 0 mm 1 mps 752 mmHg 93%
    03:00 +15°C° 0 mm 1 mps 752 mmHg 93%
    04:00 +15°C° 0 mm 2 mps 752 mmHg 92%
    05:00 +16°C° 0 mm 3 mps 752 mmHg 91%
    06:00 +17°C° 0 mm 4 mps 752 mmHg 89%
    07:00 +17°C° 0 mm 5 mps 752 mmHg 83%
    08:00 +19°C° 0 mm 6 mps 751 mmHg 76%
    09:00 +20°C° 0 mm 7 mps 751 mmHg 70%
    10:00 +21°C° 0.1 mm 7 mps 751 mmHg 70%
    11:00 +21°C° 0.1 mm 7 mps 751 mmHg 70%
    12:00 +21°C° 0.1 mm 7 mps 750 mmHg 70%
    13:00 +20°C° 0.7 mm 6 mps 750 mmHg 78%
    14:00 +19°C° 0.7 mm 6 mps 749 mmHg 85%
    15:00 +17°C° 0.7 mm 6 mps 749 mmHg 92%
    16:00 +17°C° 1.2 mm 5 mps 749 mmHg 93%
    17:00 +17°C° 1.2 mm 5 mps 749 mmHg 94%
    18:00 +18°C° 1.2 mm 4 mps 748 mmHg 95%
    19:00 +18°C° 0.7 mm 3 mps 748 mmHg 96%
    20:00 +17°C° 0.7 mm 3 mps 748 mmHg 97%
    21:00 +17°C° 0.7 mm 2 mps 748 mmHg 97%
    22:00 +18°C° 0 mm 1 mps 748 mmHg 97%
    23:00 +18°C° 0 mm 1 mps 748 mmHg 97%
    Show more